Date String (YYYY-MM-DD hh:mm:ss) UTC,Instrument flags,Ambient pressure (hPa),Sample flow (lpm),Bypass flow (lpm),Sample temperature (°C),Ambient temperature (°C),ASC tube jacket temperature (°C),LED temperature (°C),Box temperature (°C),Sample RH (%),Span deviation,Mass concentration (μg/m³),Mass concentration (μg/m³),Mass concentration (μg/m³)
DateTimeUTC,F1_M11,P_M11,Q1_M11,Q2_M11,T1_M11,T2_M11,T3_M11,T4_M11,T5_M11,U1_M11,ZSPAN_M11,X0_M11,X2_M11,X1_M11
2022-01-06 01:00:00,,0823.2,5.00,0.00,22.0,21.8,00.0,31.2,23.6,06.2,-000.0,0010.74,0005.91,0005.09
2022-01-06 01:01:00,,0823.3,4.99,0.00,22.2,22.5,00.0,31.3,23.9,06.1,-000.3,0010.62,0005.93,0005.12
2022-01-06 01:02:00,,0823.3,4.99,0.00,22.3,23.1,00.0,31.3,24.2,06.1,-000.2,0010.29,0005.99,0005.16
2022-01-06 01:03:00,,0823.0,5.00,0.00,22.4,22.9,00.0,31.3,24.2,06.1,0000.1,0010.27,0006.03,0005.18
2022-01-06 01:04:00,,0823.1,5.01,0.00,22.3,22.2,00.0,31.3,24.1,06.1,0000.0,0010.16,0006.02,0005.21
2022-01-06 01:05:00,,0823.4,4.99,0.00,22.3,21.7,00.0,31.3,23.9,06.1,0000.1,0010.30,0006.09,0005.22
2022-01-06 01:06:00,,0823.3,5.01,0.00,22.2,21.4,00.0,31.2,23.8,06.1,0000.3,0010.62,0006.11,0005.22
2022-01-06 01:07:00,,0823.2,5.01,0.00,22.1,21.1,00.0,31.2,23.6,06.1,0000.2,0010.86,0006.08,0005.20
2022-01-06 01:08:00,,0823.3,4.99,0.00,22.0,20.8,00.0,31.2,23.5,06.2,0000.4,0010.98,0006.10,0005.20
2022-01-06 01:09:00,,0823.4,5.02,0.00,22.0,20.6,00.0,31.1,23.4,06.2,0000.8,0011.08,0006.17,0005.21
2022-01-06 01:10:00,,0823.4,5.01,0.00,21.9,20.6,00.0,31.1,23.3,06.2,0000.9,0011.14,0006.19,0005.22
2022-01-06 01:11:00,,0823.4,4.99,0.00,21.8,20.6,00.0,31.1,23.2,06.2,0000.8,0011.23,0006.22,0005.23
2022-01-06 01:12:00,,0823.3,5.00,0.00,21.8,21.1,00.0,31.1,23.4,06.1,0000.8,0011.30,0006.25,0005.25
2022-01-06 01:13:00,,0823.4,5.00,0.00,22.0,22.0,00.0,31.1,23.7,06.1,0000.9,0011.52,0006.21,0005.24
2022-01-06 01:14:00,,0823.5,5.01,0.00,22.1,22.8,00.0,31.2,24.0,06.0,0000.9,0011.57,0006.21,0005.23
2022-01-06 01:15:00,,0823.5,4.99,0.00,22.2,22.9,00.0,31.2,24.1,05.9,0000.7,0011.61,0006.20,0005.21
2022-01-06 01:16:00,,0823.3,5.01,0.00,22.2,22.5,00.0,31.2,23.9,05.9,0000.7,0011.50,0006.13,0005.20
2022-01-06 01:17:00,,0823.3,4.99,0.00,22.1,22.1,00.0,31.2,23.6,05.9,0000.4,0011.26,0006.13,0005.19
2022-01-06 01:18:00,,0823.4,5.01,0.00,22.0,21.7,00.0,31.1,23.4,05.9,0000.3,0011.23,0006.21,0005.22
2022-01-06 01:19:00,,0823.3,5.00,0.00,21.9,21.3,00.0,31.1,23.2,05.9,0000.2,0011.36,0006.24,0005.22
2022-01-06 01:20:00,,0823.2,5.00,0.00,21.8,21.1,00.0,31.1,23.1,05.9,0000.3,0011.39,0006.25,0005.20
2022-01-06 01:21:00,,0823.2,5.00,0.00,21.7,20.8,00.0,31.0,23.0,06.0,0000.2,0011.26,0006.20,0005.18
2022-01-06 01:22:00,,0823.3,5.00,0.00,21.6,21.1,00.0,31.0,23.1,05.9,0000.5,0011.33,0006.19,0005.17
2022-01-06 01:23:00,,0823.4,4.99,0.00,21.8,21.8,00.0,31.0,23.4,05.9,0000.7,0011.54,0006.16,0005.17
2022-01-06 01:24:00,,0823.4,5.00,0.00,21.9,22.5,00.0,31.0,23.7,05.8,0000.5,0011.45,0006.14,0005.17
2022-01-06 01:25:00,,0823.4,4.99,0.00,22.1,23.0,00.0,31.1,23.9,05.8,0000.6,0011.41,0006.14,0005.18
2022-01-06 01:26:00,,0823.4,5.00,0.00,22.1,22.7,00.0,31.1,23.8,05.7,0000.9,0011.45,0006.14,0005.17
2022-01-06 01:27:00,,0823.4,5.00,0.00,22.0,22.2,00.0,31.1,23.5,05.7,0000.8,0011.52,0006.16,0005.17
2022-01-06 01:28:00,,0823.5,5.01,0.00,21.9,21.8,00.0,31.1,23.3,05.7,0000.8,0011.54,0006.18,0005.19
2022-01-06 01:29:00,,0823.5,5.00,0.00,21.8,21.4,00.0,31.0,23.2,05.8,0001.1,0011.43,0006.15,0005.19
2022-01-06 01:30:00,,0823.4,5.00,0.00,21.7,21.1,00.0,31.0,23.1,05.8,0001.2,0011.21,0006.10,0005.18
2022-01-06 01:31:00,,0823.4,4.99,0.00,21.6,20.9,00.0,30.9,23.0,05.8,0001.2,0011.18,0006.05,0005.19
2022-01-06 01:32:00,,0823.4,5.00,0.00,21.6,21.0,00.0,30.9,23.0,05.8,0001.2,0011.53,0006.09,0005.20
2022-01-06 01:33:00,,0823.6,4.99,0.00,21.7,21.7,00.0,30.9,23.3,05.8,0000.9,0011.63,0006.12,0005.21
2022-01-06 01:34:00,,0823.7,5.01,0.00,21.8,22.4,00.0,31.0,23.6,05.7,0000.9,0011.33,0006.11,0005.20
2022-01-06 01:35:00,,0823.6,5.01,0.00,22.0,23.0,00.0,31.0,23.9,05.6,0001.1,0010.96,0006.10,0005.20
2022-01-06 01:36:00,,0823.7,5.00,0.00,22.1,22.8,00.0,31.0,23.8,05.6,0001.0,0010.87,0006.08,0005.19
2022-01-06 01:37:00,,0823.7,5.00,0.00,22.0,22.3,00.0,31.0,23.6,05.6,0000.9,0010.74,0006.05,0005.21
2022-01-06 01:38:00,,0823.8,4.99,0.00,21.9,21.8,00.0,31.0,23.3,05.7,0000.8,0010.75,0006.07,0005.22
2022-01-06 01:39:00,,0824.0,5.03,0.00,21.7,21.4,00.0,31.0,23.1,05.7,0000.7,0010.90,0006.08,0005.20
2022-01-06 01:40:00,,0824.1,4.99,0.00,21.6,21.0,00.0,30.9,22.9,05.7,0000.5,0011.05,0006.13,0005.21
2022-01-06 01:41:00,,0824.1,5.00,0.00,21.5,20.8,00.0,30.9,22.7,05.8,0000.4,0011.78,0006.18,0005.22
2022-01-06 01:42:00,,0824.1,4.99,0.00,21.5,21.3,00.0,30.9,23.0,05.8,0000.7,0013.00,0006.23,0005.23
2022-01-06 01:43:00,,0824.1,5.01,0.00,21.7,22.0,00.0,30.9,23.3,05.7,0000.8,0012.79,0006.25,0005.25
2022-01-06 01:44:00,,0824.0,5.00,0.00,21.8,22.6,00.0,30.9,23.6,05.6,0001.0,0012.99,0006.29,0005.26
2022-01-06 01:45:00,,0823.8,5.02,0.00,22.0,22.9,00.0,31.0,23.8,05.6,0001.0,0013.03,0006.32,0005.27
2022-01-06 01:46:00,,0823.7,5.00,0.00,21.9,22.5,00.0,31.0,23.6,05.6,0000.7,0013.07,0006.33,0005.27
2022-01-06 01:47:00,,0823.7,5.00,0.00,21.8,21.9,00.0,30.9,23.2,05.6,0000.9,0013.17,0006.36,0005.28
2022-01-06 01:48:00,,0823.8,5.00,0.00,21.7,21.4,00.0,30.9,23.0,05.6,0001.1,0013.26,0006.40,0005.29
2022-01-06 01:49:00,,0823.8,5.00,0.00,21.5,21.0,00.0,30.8,22.8,05.6,0001.1,0013.16,0006.41,0005.34
2022-01-06 01:50:00,,0823.7,5.00,0.00,21.4,21.0,00.0,30.8,22.8,05.7,0001.2,0013.64,0006.41,0005.38
2022-01-06 01:51:00,,0823.7,5.00,0.00,21.6,21.7,00.0,30.8,23.1,05.6,0001.5,0013.55,0006.39,0005.40
2022-01-06 01:52:00,,0823.7,5.01,0.00,21.7,22.3,00.0,30.9,23.4,05.6,0001.4,0013.09,0006.41,0005.42
2022-01-06 01:53:00,,0823.7,4.99,0.00,21.9,22.9,00.0,30.9,23.7,05.5,0001.0,0012.07,0006.39,0005.42
2022-01-06 01:54:00,,0823.7,5.00,0.00,21.9,22.7,00.0,30.9,23.7,05.5,0001.1,0011.97,0006.37,0005.43
2022-01-06 01:55:00,,0823.7,5.00,0.00,21.9,22.1,00.0,30.9,23.4,05.5,0001.0,0011.62,0006.31,0005.43
2022-01-06 01:56:00,,0823.6,5.00,0.00,21.7,21.7,00.0,30.9,23.2,05.5,0001.0,0011.58,0006.29,0005.42
2022-01-06 01:57:00,,0823.7,4.99,0.00,21.6,21.2,00.0,30.8,22.9,05.6,0001.2,0011.65,0006.31,0005.43
2022-01-06 01:58:00,,0823.8,5.01,0.00,21.5,20.9,00.0,30.8,22.7,05.6,0001.0,0011.60,0006.28,0005.43
2022-01-06 01:59:00,,0823.8,5.00,0.00,21.4,20.8,00.0,30.8,22.7,05.7,0001.0,0011.48,0006.22,0005.42
